Weather History for Richmond, KY

Change the Weather History Date:

Sunday, February 3, 2013

  Actual Average (KLOZ) Record (KLOZ)
Temperature  
Mean Temperature 29 °F 37 °F  
Max Temperature 32 °F 47 °F 68 °F (1962)
Min Temperature 26 °F 27 °F -10 °F (1965)
Degree Days  
Heating Degree Days 36 28  
Month to date heating degree days 84  
Since 1 July heating degree days 2647  
Cooling Degree Days 0 0  
Month to date cooling degree days 0  
Year to date cooling degree days 0  
Moisture  
Dew Point 26 °F    
Average Humidity 84    
Maximum Humidity 93    
Minimum Humidity 75    
Precipitation  
Precipitation 0.00 in 0.12 in 1.51 in (1990)
Month to date precipitation 0.38  
Year to date precipitation 3.92  
Sea Level Pressure  
Sea Level Pressure 30.03 in    
Wind  
Wind Speed 7 mph (West)    
Max Wind Speed 18 mph    
Max Gust Speed 29 mph    
Visibility 9 miles    
Events      
T = Trace of Precipitation, MM = Missing Value Source: NWS Daily Summary

Daily Weather History Graph

Daily Weather History Graph

Search for Another Location

Airport:

Trip Planner

Search our weather history database for the weather conditions in past years. The results will help you decide how hot, cold, wet, or windy it might be!

Date:

Astronomy

Feb. 03, 2013 Rise Set
Actual Time 7:39 AM EST 6:03 PM EST
Civil Twilight 7:11 AM EST 6:31 PM EST
Nautical Twilight 6:40 AM EST 7:02 PM EST
Astronomical Twilight 6:09 AM EST 7:33 PM EST
Moon 1:05 AM EST (2/3) 11:41 AM EST (2/3)
Length of Visible Light 11h 19m
Length of Day
10h 24m
Waning Gibbous, 49% of the Moon is Illuminated
Feb 3
Waning Gibbous
Feb 10
New
Feb 17
First Quarter
Feb 25
Full
Mar 4
Last Quarter

Hourly Weather History & Observations

Time (EST) Temp. Windchill Dew Point Humidity Pressure Visibility Wind Dir Wind Speed Gust Speed Precip Events Conditions
12:15 AM 30.2 °F 26.7 °F 24.8 °F 80% 30.05 in 10.0 mi SW 3.5 mph - N/A   Overcast
12:55 AM 30.2 °F 25.4 °F 24.8 °F 80% 30.03 in 10.0 mi SW 4.6 mph - N/A   Scattered Clouds
1:15 AM 30.2 °F 25.4 °F 24.8 °F 80% 30.03 in 10.0 mi SSW 4.6 mph - N/A   Mostly Cloudy
1:35 AM 30.2 °F 25.4 °F 26.6 °F 86% 30.02 in 10.0 mi SSW 4.6 mph - N/A   Overcast
1:55 AM 30.2 °F 25.4 °F 26.6 °F 86% 30.01 in 10.0 mi SSW 4.6 mph - N/A   Overcast
2:15 AM 30.2 °F 24.3 °F 26.6 °F 86% 30.01 in 10.0 mi SW 5.8 mph - N/A   Overcast
2:35 AM 30.2 °F 23.4 °F 26.6 °F 86% 30.01 in 10.0 mi SW 6.9 mph - N/A   Overcast
2:55 AM 30.2 °F 23.4 °F 26.6 °F 86% 30.00 in 10.0 mi SW 6.9 mph - N/A   Overcast
3:15 AM 32.0 °F 25.6 °F 26.6 °F 80% 29.99 in 10.0 mi SW 6.9 mph - N/A   Overcast
3:35 AM 32.0 °F 24.8 °F 28.4 °F 87% 29.99 in 10.0 mi WSW 8.1 mph - N/A   Overcast
3:55 AM 32.0 °F 25.6 °F 28.4 °F 87% 29.98 in 10.0 mi WSW 6.9 mph - N/A   Overcast
4:15 AM 32.0 °F 24.8 °F 26.6 °F 80% 29.98 in 10.0 mi West 8.1 mph - N/A   Overcast
4:35 AM 32.0 °F 23.6 °F 26.6 °F 80% 29.97 in 10.0 mi West 10.4 mph - N/A   Overcast
4:55 AM 32.0 °F 24.2 °F 26.6 °F 80% 29.96 in 10.0 mi West 9.2 mph - N/A   Overcast
5:15 AM 32.0 °F 24.8 °F 26.6 °F 80% 29.96 in 10.0 mi West 8.1 mph - N/A   Overcast
5:35 AM 32.0 °F 26.4 °F 26.6 °F 80% 29.96 in 10.0 mi West 5.8 mph - N/A   Overcast
5:55 AM 30.2 °F 25.4 °F 26.6 °F 86% 29.95 in 10.0 mi West 4.6 mph - N/A   Overcast
6:15 AM 30.2 °F 24.3 °F 26.6 °F 86% 29.95 in 10.0 mi West 5.8 mph - N/A   Overcast
6:35 AM 30.2 °F 26.7 °F 26.6 °F 86% 29.95 in 7.0 mi West 3.5 mph - N/A   Overcast
6:55 AM 30.2 °F 24.3 °F 26.6 °F 86% 29.94 in 7.0 mi WSW 5.8 mph - N/A   Overcast
7:15 AM 30.2 °F 21.3 °F 26.6 °F 86% 29.94 in 3.0 mi West 10.4 mph - N/A   Overcast
7:35 AM 30.2 °F 21.3 °F 26.6 °F 86% 29.95 in 4.0 mi West 10.4 mph - N/A   Overcast
7:55 AM 30.2 °F 24.3 °F 28.4 °F 93% 29.95 in 4.0 mi West 5.8 mph - N/A   Overcast
8:15 AM 30.2 °F 23.4 °F 28.4 °F 93% 29.96 in 5.0 mi West 6.9 mph - N/A   Overcast
8:35 AM 30.2 °F 23.4 °F 28.4 °F 93% 29.95 in 7.0 mi WSW 6.9 mph - N/A   Overcast
8:55 AM 30.2 °F 21.9 °F 28.4 °F 93% 29.96 in 5.0 mi West 9.2 mph - N/A   Overcast
9:15 AM 30.2 °F 23.4 °F 28.4 °F 93% 29.96 in 4.0 mi WSW 6.9 mph - N/A   Overcast
9:55 AM 30.2 °F 21.9 °F 28.4 °F 93% 29.97 in 4.0 mi WNW 9.2 mph - N/A   Overcast
10:15 AM 30.2 °F 22.6 °F 28.4 °F 93% 29.97 in 5.0 mi WNW 8.1 mph - N/A   Overcast
10:35 AM 30.2 °F 21.9 °F 26.6 °F 86% 29.97 in 7.0 mi WNW 9.2 mph - N/A   Overcast
10:55 AM 30.2 °F 22.6 °F 26.6 °F 86% 29.98 in 10.0 mi WNW 8.1 mph - N/A   Overcast
11:15 AM 30.2 °F 21.3 °F 28.4 °F 93% 29.98 in 7.0 mi WNW 10.4 mph - N/A   Overcast
11:35 AM 30.2 °F 22.6 °F 28.4 °F 93% 29.98 in 7.0 mi West 8.1 mph - N/A   Overcast
11:55 AM 30.2 °F 22.6 °F 28.4 °F 93% 29.98 in 10.0 mi WNW 8.1 mph - N/A   Overcast
12:15 PM 30.2 °F 22.6 °F 26.6 °F 86% 29.98 in 10.0 mi West 8.1 mph - N/A   Overcast
12:35 PM 32.0 °F 20.8 °F 26.6 °F 80% 29.98 in 10.0 mi WNW 17.3 mph - N/A   Overcast
12:55 PM 30.2 °F 20.2 °F 26.6 °F 86% 29.99 in 10.0 mi WNW 12.7 mph 18.4 mph N/A   Overcast
1:15 PM 30.2 °F 18.9 °F 26.6 °F 86% 30.00 in 10.0 mi WNW 16.1 mph 21.9 mph N/A   Overcast
1:35 PM 30.2 °F 19.8 °F 26.6 °F 86% 30.01 in 10.0 mi West 13.8 mph 19.6 mph N/A   Overcast
1:55 PM 30.2 °F 19.8 °F 26.6 °F 86% 30.00 in 10.0 mi WNW 13.8 mph - N/A   Overcast
2:15 PM 30.2 °F 20.8 °F 26.6 °F 86% 30.01 in 10.0 mi WNW 11.5 mph 18.4 mph N/A   Overcast
2:35 PM 30.2 °F 20.2 °F 24.8 °F 80% 30.01 in 10.0 mi West 12.7 mph 21.9 mph N/A   Overcast
3:15 PM 30.2 °F 21.3 °F 24.8 °F 80% 30.02 in 10.0 mi West 10.4 mph - N/A   Overcast
3:35 PM 30.2 °F 19.8 °F 24.8 °F 80% 30.03 in 10.0 mi West 13.8 mph - N/A   Overcast
3:55 PM 30.2 °F 21.3 °F 24.8 °F 80% 30.05 in 10.0 mi West 10.4 mph 19.6 mph N/A   Overcast
4:15 PM 30.2 °F 18.1 °F 24.8 °F 80% 30.06 in 10.0 mi West 18.4 mph - N/A   Overcast
4:35 PM 30.2 °F 18.1 °F 24.8 °F 80% 30.06 in 10.0 mi West 18.4 mph 25.3 mph N/A   Overcast
4:55 PM 30.2 °F 19.3 °F 23.0 °F 75% 30.07 in 10.0 mi West 15.0 mph 28.8 mph N/A   Overcast
5:15 PM 30.2 °F 18.9 °F 23.0 °F 75% 30.08 in 10.0 mi WNW 16.1 mph 21.9 mph N/A   Overcast
5:35 PM 30.2 °F 19.8 °F 23.0 °F 75% 30.09 in 10.0 mi West 13.8 mph 24.2 mph N/A   Overcast
5:55 PM 28.4 °F 17.5 °F 23.0 °F 80% 30.09 in 7.0 mi WNW 13.8 mph - N/A   Overcast
6:15 PM 28.4 °F 18.5 °F 23.0 °F 80% 30.10 in 5.0 mi WNW 11.5 mph 16.1 mph N/A   Overcast
6:35 PM 28.4 °F 19.1 °F 23.0 °F 80% 30.10 in 10.0 mi WNW 10.4 mph - N/A   Overcast
6:55 PM 28.4 °F 18.0 °F 23.0 °F 80% 30.12 in 10.0 mi West 12.7 mph - N/A   Overcast
7:15 PM 28.4 °F 20.4 °F 23.0 °F 80% 30.12 in 10.0 mi West 8.1 mph - N/A   Overcast
7:35 PM 28.4 °F 21.2 °F 23.0 °F 80% 30.13 in 10.0 mi West 6.9 mph - N/A   Overcast
7:55 PM 28.4 °F 21.2 °F 23.0 °F 80% 30.13 in 10.0 mi WNW 6.9 mph - N/A   Overcast
8:15 PM 28.4 °F 21.2 °F 23.0 °F 80% 30.14 in 10.0 mi WNW 6.9 mph - N/A   Overcast
8:35 PM 28.4 °F 22.2 °F 23.0 °F 80% 30.14 in 10.0 mi WNW 5.8 mph - N/A   Overcast
8:55 PM 28.4 °F 22.2 °F 23.0 °F 80% 30.14 in 10.0 mi WNW 5.8 mph - N/A   Overcast
9:15 PM 28.4 °F 24.6 °F 23.0 °F 80% 30.14 in 10.0 mi West 3.5 mph - N/A   Overcast
9:35 PM 26.6 °F 22.6 °F 23.0 °F 86% 30.14 in 10.0 mi West 3.5 mph - N/A   Overcast
9:55 PM 28.4 °F - 23.0 °F 80% 30.15 in 10.0 mi Calm Calm - N/A   Overcast
10:15 PM 28.4 °F - 23.0 °F 80% 30.14 in 10.0 mi Calm Calm - N/A   Overcast
10:35 PM 28.4 °F - 23.0 °F 80% 30.14 in 10.0 mi Calm Calm - N/A   Overcast
10:55 PM 26.6 °F - 23.0 °F 86% 30.14 in 10.0 mi Calm Calm - N/A   Overcast
11:15 PM 26.6 °F - 23.0 °F 86% 30.14 in 10.0 mi Calm Calm - N/A   Mostly Cloudy
11:35 PM 26.6 °F - 23.0 °F 86% 30.13 in 10.0 mi Calm Calm - N/A   Overcast
11:55 PM 26.6 °F 22.6 °F 23.0 °F 86% 30.13 in 10.0 mi SSW 3.5 mph - N/A   Mostly Cloudy